User: anonymous   Login
Location: Diebersbach
(48.5163°N, 8.0558°E)
Time: 00:30:53
(UTC+00:00)
Language:

Cosmos 1943 Rocket - Orbit

View from above orbital plane
View from above orbital plane
View from above satellite
View from above satellite

Ground track
Ground track

The orbit data is extracted from the following two-line orbital elements,

1 19120U 88039B   21260.33603291 -.00000059  00000-0 -53603-5 0  9997
2 19120  71.0132 283.0999 0023408 321.8771  38.0697 14.19225526726471
Epoch (UTC): 17 September 2021 08:03:53
Eccentricity: 0.0023408
inclination: 71.0132°
perigee height: 811 km
apogee height: 845 km
right ascension of ascending node: 283.0999°
argument of perigee: 321.8771°
revolutions per day: 14.19225526
mean anomaly at epoch: 38.0697°
orbit number at epoch: 72647

The dashed part of the orbit path shows where the satellite is in the earth's shadow,  

DLR